Location: Bergnershof
(48.9468°N, 10.9431°E)
Time: 23:03:10
(UTC+00:00)

Cosmos 2333 Rocket - Visible Passes

Search period start: 24 June 2021 00:00
Search period end: 04 July 2021 00:00
Orbit: 839 x 862 km, 70.8° (Epoch: 24 June)

Date Brightness Start Highest point End Pass type
(mag) Time Alt. Az. Time Alt. Az. Time Alt. Az.
24 Jun 3.8 21:14:57 10° WSW 21:20:15 37° NW 21:25:33 10° NNE visible
24 Jun 5.3 23:04:16 10° NW 23:06:19 12° NNW 23:08:22 10° N visible
25 Jun 3.9 21:02:41 10° WSW 21:07:59 37° NW 21:13:17 10° NNE visible
25 Jun 5.4 22:52:01 10° NW 22:54:03 12° NNW 22:56:06 10° N visible
26 Jun 5.4 02:25:35 10° N 02:28:35 14° NNE 02:31:36 10° ENE visible
26 Jun 3.9 20:50:26 10° WSW 20:55:43 37° NW 21:01:01 10° NNE visible
26 Jun 5.4 22:39:45 10° NW 22:41:47 12° NNW 22:43:50 10° N visible
27 Jun 5.4 02:13:19 10° N 02:16:19 14° NNE 02:19:19 10° ENE visible
27 Jun 4.0 20:38:10 10° WSW 20:43:27 37° NW 20:48:45 10° NNE visible
27 Jun 5.5 22:27:29 10° NW 22:29:31 12° NNW 22:31:33 10° N visible
28 Jun 5.5 02:01:03 10° N 02:04:04 14° NNE 02:07:04 10° ENE visible
28 Jun 4.0 20:25:55 10° WSW 20:31:12 37° NW 20:36:30 10° NNE visible
28 Jun 5.6 22:15:14 10° NW 22:17:16 12° NNW 22:19:18 10° N visible
29 Jun 5.5 01:48:47 10° N 01:51:48 14° NNE 01:54:48 10° ENE visible
29 Jun 4.0 20:13:39 10° WSW 20:18:56 37° NW 20:24:13 10° NNE visible
29 Jun 5.6 22:02:58 10° NW 22:05:00 12° NNW 22:07:02 10° N visible
30 Jun 5.6 01:36:32 10° N 01:39:32 14° NNE 01:42:32 10° ENE visible
30 Jun 4.1 20:01:23 10° WSW 20:06:40 37° NW 20:11:57 10° NNE visible
30 Jun 5.7 21:50:43 10° NW 21:52:44 12° NNW 21:54:46 10° N visible
01 Jul 5.6 01:24:16 10° N 01:27:16 14° NNE 01:30:16 10° ENE visible
01 Jul 5.8 21:38:27 10° NW 21:40:28 12° NNW 21:42:30 10° N visible
02 Jul 5.5 01:12:00 10° N 01:15:00 14° NNE 01:17:59 10° ENE visible
02 Jul 5.8 21:26:12 10° NW 21:28:13 12° NNW 21:30:14 10° N visible
03 Jul 5.4 00:59:44 10° N 01:02:44 14° NNE 01:05:44 10° ENE visible
03 Jul 5.8 21:13:57 10° NW 21:15:57 12° NNW 21:17:58 10° N visible
